sat.trackr.live / text

‹ back to catalog

STARLINK-33844

NORAD 63768 · 2025-089T

PAYLOAD ACTIVE UNKNOWN

§ Identity

Operator
Country
US
Launch date
2025-04-29
Launch site
AFETR
Launch vehicle
Mass (kg)
RCS (m²)

Purposes: comms

External: N2YO · Heavens-Above · Gunter

§ Orbital elements

Epoch: 2026-05-24T22:49:18.052032Z

Period
94.27 min
Inclination
43.0010°
Eccentricity
0.0001052
Mean motion
15.27602249 rev/d
Perigee alt
482.3 km
Apogee alt
483.7 km
Semi-major
6,861.1 km
B*
6.7110e-4
RAAN
334.3012°
Arg perigee
278.4114°
Mean anomaly
81.6618°
Rev number
6,062

§ Raw data

STARLINK-338441 63768U 25089T   26144.95090338  .00018263  00000+0  67110-3 0  99952 63768  43.0010 334.3012 0001052 278.4114  81.6618 15.27602249 60623

JSON: /api/v1/satellites/63768 · /tle

For live sub-satellite position, see the globe view (requires WebGL).

§ Visibility from observer

Set your observer location to see the next 7 days of passes ≥ 10°. The values pass through the URL so the page stays shareable.

No JS? Fill the form by hand. The geolocation button needs JavaScript.